PEGASUS DEB, 24996

Orbit data source: Space-Track

PEGASUS DEB, 24996 is space debris in LEO originally from a launch on Thu, 19 May 1994 UTC launched from the Air Force Western Test Range (AFWTR). Debris objects in space refer to the collection of defunct objects orbiting the Earth. Examples of debris include non-operational satellites, rocket bodies, and fragments generated from explosions, collisions, or faulty payload assembly.

Loading next visibility...
Identifier
24996, 1994-029ADD
Orbit
LEO
Country
Flag of USUS
Related business
Manufacturer
Unknown
Mission
Spacecraft
Bus & Motor
Unknown
Mass
Unknown
Launch date (UTC)
1994-05-19 (32 years ago)
Launch vehicle
Unknown
Launch site
Air Force Western Test Range (AFWTR)
Object type
Payload
Rocket body
Debris
Shape & HBR
Unknown shape, 0.1 m
Radar Cross Section
Medium (>0.1 m² and <1 m²)

Expand to show TLE details & history
Last TLE update: 2 days ago

TLE from 2 days ago
0 PEGASUS DEB
1 24996U 94029ADD 26174.95114012  .00014825  00000-0  18344-2 0  9999
2 24996  82.1671   5.5319 0187778  40.0838 321.4049 14.70876895498493
Epoch: 2026-06-23T22:49Z
TLE epoch observation values (Epoch: 2026-06-23T22:49:38.506Z)
Latitude
-0.00009°
Longitude
111.0061°
Altitude
558.979 km
Speed
7.637 km/s
True Right ascension
00h 22m 07s
True Declination
0° 00' 00"
Sunlit
Object was in daylight at epoch
Visualization orbit readout
Latitude
Unknown
Longitude
Unknown
Altitude
Unknown
Speed
Unknown
Apparent Right ascension
Unknown
Apparent Declination
Unknown
Sunlit
N/A
Visualization observer readout
Local Sidereal Time
00:07:50
Azimuth
Unknown
Elevation
Unknown
Doppler factor
Unknown
Orbital elements
Apogee altitude
787.391 km
Perigee altitude
523.246 km
Semi-major axis
7,033.456 km
Eccentricity
0.01878
Inclination
82.1671°
RAAN
5.5319°
Arg. of periapsis
40.0838°
True anomaly
320.03766°
Mean anomaly
321.4049°
Eccentric anomaly
320.7238°
Mean motion
3.67951 °/min
Orbital period
97.84 mins
BSTAR
0.0018344
Loading maneuver chart data...
Computing Atmospheric mass density...

Documentation

Showing up to 5 results
|